Location: ???? ?????????
(31.1304°N, 31.7111°E)
Time: 12:41:47
(UTC+00:00)

STRAND 1 - Visible Passes

Search period start: 20 April 2021 00:00
Search period end: 30 April 2021 00:00
Orbit: 767 x 782 km, 98.4° (Epoch: 20 April)

Date Brightness Start Highest point End Pass type
(mag) Time Alt. Az. Time Alt. Az. Time Alt. Az.
20 Apr ? 16:55:35 10° NNE 17:00:38 64° ESE 17:05:42 10° S visible
20 Apr ? 18:37:26 10° NW 18:39:12 12° WNW 18:40:58 10° W visible
21 Apr ? 18:01:19 10° NNW 18:05:30 26° WNW 18:09:42 10° SW visible
22 Apr ? 17:26:37 10° N 17:31:38 59° WNW 17:36:38 10° SSW visible
23 Apr ? 16:52:34 10° NNE 16:57:37 60° E 17:02:38 10° S visible
23 Apr ? 18:34:04 10° NW 18:36:13 13° WNW 18:38:23 10° W visible
24 Apr ? 17:58:12 10° NNW 18:02:30 28° WNW 18:06:48 10° SW visible
25 Apr ? 17:23:34 10° N 17:28:37 64° WNW 17:33:40 10° SSW visible
26 Apr ? 16:49:34 10° NNE 16:54:35 55° E 16:59:35 10° S visible
26 Apr ? 18:30:45 10° NW 18:33:14 14° WNW 18:35:42 10° W visible
27 Apr ? 17:55:05 10° N 17:59:30 30° WNW 18:03:55 10° SW visible
28 Apr ? 17:20:31 10° N 17:25:36 69° WNW 17:30:41 10° SSW visible
29 Apr ? 18:27:28 10° NNW 18:30:14 15° WNW 18:33:00 10° W visible
